FW8671 Weather Reports


time (UTC)temp
C
wind
direction
speed
KPH
gust
KPH
rain 1hr
cm
rain 24hr
cm
rain mn
cm
humidity
%
barometer
mb
20260506104329 13 222 12.9 29.0 0.00 0.00 0.00 91 1013.3
20260506103344 13 231 12.9 33.8 0.00 0.00 0.00 91 1013.2
20260506102331 13 233 12.9 33.8 0.00 0.00 0.00 92 1013.2
20260506101351 13 219 11.3 30.6 0.00 0.00 0.00 92 1013.1
20260506100410 13 216 14.5 30.6 0.00 0.00 0.00 91 1013.2
20260506095411 13 264 12.9 25.7 0.00 0.00 0.00 91 1013.2
20260506094433 13 232 12.9 25.7 0.00 0.00 0.00 91 1013.3
20260506093410 13 224 11.3 29.0 0.00 0.00 0.00 92 1013.1
20260506092350 13 199 11.3 29.0 0.00 0.00 0.00 91 1013.2
20260506091355 13 225 11.3 25.7 0.00 0.00 0.00 91 1013.3
20260506090402 13 256 11.3 35.4 0.00 0.00 0.00 91 1013.5
20260506085358 13 340 11.3 35.4 0.00 0.00 0.00 91 1013.4
20260506084352 13 260 12.9 29.0 0.00 0.00 0.00 91 1013.6
20260506083342 13 207 14.5 30.6 0.00 0.00 0.00 91 1013.5
20260506072939 13 236 16.1 32.2 0.00 0.00 0.00 89 1013.8
20260506071939 13 225 14.5 37.0 0.00 0.00 0.00 89 1013.9
20260506070927 14 221 17.7 37.0 0.00 0.00 0.00 89 1013.9
20260506062026 14 201 16.1 37.0 0.00 0.00 0.00 87 1013.7
20260506060955 14 244 16.1 35.4 0.00 0.00 0.00 87 1013.8
20260506050719 15 234 14.5 32.2 0.00 0.00 0.00 86 1014.0
20260506044706 15 255 19.3 41.8 0.00 0.00 0.00 86 1013.9
20260506042527 15 227 16.1 38.6 0.00 0.00 0.00 86 1014.0
20260506041535 15 229 14.5 37.0 0.00 0.00 0.00 85 1013.9
20260506035340 14 245 14.5 37.0 0.00 0.00 0.00 85 1014.1
20260506034340 14 232 14.5 40.2 0.00 0.00 0.00 86 1014.2
20260506033319 14 228 12.9 40.2 0.00 0.00 0.00 85 1014.1
20260506032258 14 279 16.1 38.6 0.00 0.00 0.00 85 1014.1
20260506031244 14 245 16.1 38.6 0.00 0.00 0.00 85 1014.1
20260506030227 14 215 16.1 35.4 0.00 0.00 0.00 85 1014.2
20260506025209 15 215 14.5 33.8 0.00 0.00 0.00 85 1014.1
20260506024146 15 207 14.5 32.2 0.00 0.00 0.00 85 1014.1
20260506023114 15 263 12.9 30.6 0.00 0.00 0.00 85 1014.2
20260506022055 15 217 14.5 29.0 0.00 0.00 0.00 85 1014.3
20260506021024 15 0 16.1 37.0 0.00 0.00 0.00 84 1014.2
20260506014945 15 236 16.1 37.0 0.00 0.00 0.00 84 1013.9
20260506013939 15 213 14.5 30.6 0.00 0.00 0.00 84 1013.9
20260506010658 15 234 19.3 41.8 0.00 0.00 0.00 82 1013.4
20260506005630 15 217 19.3 40.2 0.00 0.00 0.00 82 1013.5
20260506004644 15 215 19.3 45.1 0.00 0.00 0.00 81 1013.4
20260506002520 15 227 19.3 41.8 0.00 0.00 0.00 81 1013.1
20260506001512 15 340 22.5 48.3 0.00 0.00 0.00 81 1013.1
20260506000502 15 339 19.3 48.3 0.00 0.00 0.00 81 1012.9
20260505235521 15 236 19.3 43.5 0.00 0.00 0.00 82 1012.9
20260505234502 15 209 19.3 46.7 0.00 0.00 0.00 81 1012.5
20260505233436 15 178 20.9 46.7 0.00 0.00 0.00 81 1012.3
20260505230250 15 242 17.7 48.3 0.00 0.00 0.00 81 1012.1
20260505225240 15 203 19.3 48.3 0.00 0.00 0.00 81 1011.9
20260505223114 16 204 19.3 45.1 0.00 0.00 0.00 80 1011.9
20260505222134 16 248 20.9 45.1 0.00 0.00 0.00 80 1011.9
20260505221114 16 209 19.3 45.1 0.00 0.00 0.00 79 1011.7
20260505220104 16 208 19.3 40.2 0.00 0.00 0.00 79 1011.8
20260505215032 16 230 20.9 46.7 0.00 0.00 0.00 79 1011.7
20260505212900 16 182 22.5 48.3 0.00 0.00 0.00 79 1011.4
20260505211907 16 198 22.5 48.3 0.00 0.00 0.00 78 1011.4
20260505210856 16 238 20.9 43.5 0.00 0.00 0.00 79 1011.3
20260505204729 16 218 19.3 43.5 0.00 0.00 0.00 78 1011.3
20260505203736 16 200 19.3 38.6 0.00 0.00 0.00 78 1011.2
20260505202702 16 103 16.1 35.4 0.00 0.00 0.00 77 1011.3
20260505201718 17 238 11.3 30.6 0.00 0.00 0.00 77 1011.4
20260505200736 16 258 12.9 30.6 0.00 0.00 0.00 79 1011.5
20260505195743 16 227 11.3 30.6 0.00 0.00 0.00 79 1011.9
20260505194725 16 183 14.5 30.6 0.00 0.00 0.00 80 1012.0
20260505193712 16 225 14.5 30.6 0.00 0.00 0.00 80 1012.1
20260505190424 16 235 16.1 32.2 0.00 0.00 0.00 80 1012.6
20260505185358 16 200 14.5 33.8 0.00 0.00 0.00 80 1012.8
20260505184328 16 224 14.5 33.8 0.00 0.00 0.00 82 1013.0
20260505182124 15 212 14.5 32.2 0.00 0.00 0.00 82 1013.2
20260505181052 16 219 12.9 32.2 0.00 0.00 0.00 81 1013.2
20260505173758 15 214 12.9 29.0 0.00 0.00 0.00 82 1013.3
20260505172801 15 215 14.5 37.0 0.00 0.00 0.00 83 1013.4
20260505171806 15 156 14.5 37.0 0.00 0.00 0.00 83 1013.5
20260505170808 15 209 16.1 27.4 0.00 0.00 0.00 83 1013.6
20260505165808 15 230 14.5 27.4 0.00 0.00 0.00 83 1013.6
20260505164816 15 216 12.9 25.7 0.00 0.00 0.00 84 1013.6
20260505163756 15 234 12.9 24.1 0.00 0.00 0.00 81 1013.9
20260505162744 16 232 9.7 27.4 0.00 0.00 0.00 83 1013.9
20260505161722 15 223 14.5 27.4 0.00 0.00 0.00 84 1013.9
20260505160725 15 185 11.3 27.4 0.00 0.00 0.00 83 1014.1
20260505151549 15 203 12.9 25.7 0.00 0.00 0.00 83 1014.5
20260505150528 15 209 11.3 22.5 0.00 0.00 0.00 83 1014.6
20260505140149 15 233 11.3 20.9 0.00 0.00 0.00 85 1014.4
20260505124852 13 199 8.0 20.9 0.00 0.00 0.00 89 1013.9
20260505123909 13 217 9.7 19.3 0.00 0.00 0.00 89 1014.0
20260505121716 13 174 8.0 14.5 0.00 0.00 0.00 89 1014.1
20260505120735 13 214 8.0 14.5 0.00 0.00 0.00 89 1014.1
20260505115756 13 198 6.4 11.3 0.00 0.00 0.00 88 1013.9
20260505114738 14 226 3.2 12.9 0.00 0.00 0.00 89 1013.8
20260505111536 13 200 4.8 17.7 0.00 0.00 0.00 91 1013.9
20260505110545 13 248 6.4 17.7 0.00 0.00 0.00 91 1014.1